STARLINK-35178, 65610

Orbit data source: Space-Track

STARLINK-35178, 65610 is a payload satellite owned by SpaceX/Seattle (US) in SSO that was launched on Sat, 13 Sep 2025 UTC via an FALCON 9 launch vehicle from the Air Force Eastern Test Range (AFETR). Payload-class satellites include a variety of spacecraft equipped with specific instruments for various scientific and technological missions. These include communications satellites like Starlink; space stations such as the ISS; scientific satellites like the Hubble; Earth observation satellites from companies like Planet Labs, Umbra, and HawkEye 360; GPS; miniature CubeSats for education and research; and military/defense satellites.

Loading next visibility...
Identifier
65610, 2025-207U
Orbit
SSO
Country
Flag of USUS
Related business
Manufacturer
SpaceX/Seattle
Mission
Operational Commercial Communications
Bus & Motor
STARLINK V2MO, Unknown motor
Mass
575 kg wet, ~530 kg dry
Launch date (UTC)
2025-09-13 (9 months ago)
Launch vehicle
FALCON 9
Launch site
Air Force Eastern Test Range (AFETR)
Object type
Payload
Rocket body
Debris
Shape & HBR
Box + 2 Pan, 17.7 m
Radar Cross Section
36.964 m², Large (>1 m²)

Expand to show TLE details & history
Last TLE update: 6 hours ago

TLE from 6 hours ago
0 STARLINK-35178
1 65610U 25207U   26166.93707142  .00007781  00000-0  54260-3 0  9991
2 65610  97.3538 234.5465 0002171 127.9589 232.1834 15.05653116 43043
Epoch: 2026-06-15T22:29Z
TLE epoch observation values (Epoch: 2026-06-15T22:29:22.970Z)
Latitude
-0.00012°
Longitude
-7.01549°
Altitude
553.496 km
Speed
7.584 km/s
True Right ascension
15h 38m 11s
True Declination
0° 00' 00"
Sunlit
Object was in full shadow at epoch
Visualization orbit readout
Latitude
Unknown
Longitude
Unknown
Altitude
Unknown
Speed
Unknown
Apparent Right ascension
Unknown
Apparent Declination
Unknown
Sunlit
N/A
Visualization observer readout
Local Sidereal Time
14:40:49
Azimuth
Unknown
Elevation
Unknown
Doppler factor
Unknown
Orbital elements
Apogee altitude
547.988 km
Perigee altitude
544.981 km
Semi-major axis
6,924.621 km
Eccentricity
0.00022
Inclination
97.3538°
RAAN
234.5465°
Arg. of periapsis
127.9589°
True anomaly
232.16375°
Mean anomaly
232.1834°
Eccentric anomaly
232.17357°
Mean motion
3.7666 °/min
Orbital period
95.58 mins
BSTAR
0.0005426
Loading maneuver chart data...
Computing Atmospheric mass density...
Loading historical data...
Loading historical data...
Loading historical data...
Loading historical data...
Loading historical data...
Loading historical data...
Loading historical data...

Documentation

Showing up to 5 results
|